EW9922 Weather Reports


Display with metric or nautical units.
time (UTC)temp
F
wind
direction
speed
MPH
gust
MPH
rain 1hr
in
rain 24hr
in
rain mn
in
humidity
%
barometer
mb
20190323091017 55 0.0 0.0 0.00 0.00 0.00 96 1007.0
20190323090017 55 0.0 0.0 0.00 0.00 0.00 96 1006.8
20190323085017 54 0.0 0.0 0.00 0.00 0.00 95 1006.9
20190323084017 55 0.0 0.0 0.00 0.00 0.00 95 1006.9
20190323083017 55 0.0 0.0 0.00 0.00 0.00 95 1007.0
20190323082017 56 0.0 0.0 0.00 0.00 0.00 95 1007.0
20190323081017 56 0.0 0.0 0.00 0.00 0.00 96 1007.3
20190323080017 55 0.0 0.0 0.00 0.00 0.00 96 1007.3
20190323075017 55 0.0 0.0 0.00 0.00 0.00 95 1007.4
20190323074017 56 0.0 0.0 0.00 0.00 0.00 94 1007.5
20190323073017 56 0.0 0.0 0.00 0.00 0.00 94 1007.4
20190323072017 57 0.0 0.0 0.00 0.00 0.00 94 1007.4
20190323071017 57 0.0 0.0 0.00 0.00 0.00 94 1007.5
20190323070017 57 0.0 0.0 0.00 0.00 0.00 95 1007.5
20190323065016 58 0.0 0.0 0.00 0.00 0.00 94 1007.5
20190323064016 58 0.0 0.0 0.00 0.00 0.00 95 1007.6
20190323063016 58 0.0 0.0 0.00 0.00 0.00 94 1007.6
20190323062016 58 0.0 0.0 0.00 0.00 0.00 93 1007.5
20190323061016 59 0.0 0.0 0.00 0.00 0.00 93 1007.4
20190323060016 59 0.0 0.0 0.00 0.00 0.00 92 1007.4
20190323055015 60 0 1.0 3.0 0.00 0.00 0.00 93 1007.6
20190323054016 60 0.0 0.0 0.00 0.00 0.00 91 1007.5
20190323053132 61 0.0 3.0 0.00 0.00 0.00 91 1007.4
20190323052016 61 0.0 1.0 0.00 0.00 0.00 91 1007.5
20190323051016 61 0.0 0.0 0.00 0.00 0.00 91 1007.6
20190323050016 61 0.0 0.0 0.00 0.00 0.00 91 1007.6
20190323045016 62 0.0 2.0 0.00 0.00 0.00 91 1007.7
20190323044018 62 0.0 2.0 0.00 0.00 0.00 91 1007.7
20190323043017 62 247 1.0 3.0 0.00 0.00 0.00 93 1007.6
20190323042018 62 0.0 0.0 0.00 0.00 0.00 95 1007.6
20190323041018 60 0.0 0.0 0.00 0.00 0.00 93 1007.6
20190323040019 60 0.0 0.0 0.00 0.00 0.00 92 1007.2
20190323035018 60 0.0 0.0 0.00 0.00 0.00 91
20190323034017 61 0.0 0.0 0.00 0.00 0.00 91 1007.1
20190323033018 61 0.0 0.0 0.00 0.00 0.00 91 1006.9
20190323032018 62 0.0 0.0 0.00 0.00 0.00 91 1006.9
20190323031018 62 0.0 0.0 0.00 0.00 0.00 91 1006.9
20190323030017 62 0.0 0.0 0.00 0.00 0.00 90 1006.7
20190323025018 62 0.0 0.0 0.00 0.00 0.00 90 1006.6
20190323024017 63 0.0 0.0 0.00 0.00 0.00 88 1006.5
20190323023018 64 0.0 0.0 0.00 0.00 0.00 88 1006.3
20190323022018 65 0.0 1.0 0.00 0.00 0.00 88 1006.1
20190323021018 65 225 1.0 2.0 0.00 0.00 0.00 86 1005.8
20190323020017 66 225 2.0 3.0 0.00 0.00 0.00 85 1005.7
20190323015018 67 225 3.0 4.0 0.00 0.00 0.00 83 1005.5
20190323014017 67 225 3.0 4.0 0.00 0.00 0.00 82 1005.5
20190323013017 69 225 3.0 4.0 0.00 0.00 0.00 80 1005.4
20190323012017 70 225 2.0 3.0 0.00 0.00 0.00 77 1005.4
20190323011017 72 225 3.0 5.0 0.00 0.00 0.00 73 1005.3
20190323010017 73 247 4.0 5.0 0.00 0.00 0.00 70 1005.4
20190323005017 74 225 4.0 6.0 0.00 0.00 0.00 68 1005.3
20190323004017 76 247 4.0 6.0 0.00 0.00 0.00 68 1005.4
20190323003018 76 247 4.0 5.0 0.00 0.00 0.00 66 1005.4
20190323002017 77 247 5.0 7.0 0.00 0.00 0.00 65 1005.5
20190323001017 78 247 4.0 7.0 0.00 0.00 0.00 64 1005.4
20190323000017 78 247 4.0 9.0 0.00 0.00 0.00 63 1005.4
20190322235017 78 247 5.0 8.0 0.00 0.00 0.00 62 1005.4
20190322234018 78 247 5.0 9.0 0.00 0.00 0.00 61 1005.5
20190322233017 78 270 6.0 9.0 0.00 0.00 0.00 60 1005.6
20190322232017 78 247 7.0 11.0 0.00 0.00 0.00 59 1005.6
20190322231017 79 247 8.0 12.0 0.00 0.00 0.00 57 1005.7
20190322230018 79 247 6.0 10.0 0.00 0.00 0.00 59 1005.6
20190322225017 79 247 8.0 12.0 0.00 0.00 0.00 60 1005.6
20190322224017 79 247 7.0 11.0 0.00 0.00 0.00 57 1005.5
20190322223017 79 247 7.0 12.0 0.00 0.00 0.00 55 1005.5
20190322222017 80 247 7.0 11.0 0.00 0.00 0.00 54 1005.6
20190322221017 80 247 7.0 11.0 0.00 0.00 0.00 50 1005.7
20190322220018 80 247 7.0 12.0 0.00 0.00 0.00 55 1005.7
20190322215017 80 247 7.0 11.0 0.00 0.00 0.00 57 1005.9
20190322214017 81 270 7.0 12.0 0.00 0.00 0.00 53 1005.9
20190322213018 80 247 8.0 13.0 0.00 0.00 0.00 58 1006.0
20190322212017 80 247 6.0 10.0 0.00 0.00 0.00 55 1006.0
20190322211018 80 247 7.0 11.0 0.00 0.00 0.00 58 1006.3
20190322210017 80 247 8.0 12.0 0.00 0.00 0.00 60 1006.4
20190322205017 80 247 7.0 12.0 0.00 0.00 0.00 57 1006.5
20190322204017 80 247 9.0 15.0 0.00 0.00 0.00 58 1006.6
20190322203017 81 247 8.0 12.0 0.00 0.00 0.00 55 1006.7
20190322202017 82 247 8.0 13.0 0.00 0.00 0.00 54 1006.7
20190322201017 83 247 8.0 12.0 0.00 0.00 0.00 53 1006.7
20190322200018 84 247 8.0 11.0 0.00 0.00 0.00 51 1006.9
20190322195017 84 270 4.0 9.0 0.00 0.00 0.00 46 1006.9
20190322194016 84 270 5.0 8.0 0.00 0.00 0.00 38 1007.0
20190322193016 84 270 4.0 8.0 0.00 0.00 0.00 39 1007.2
20190322192017 83 270 4.0 7.0 0.00 0.00 0.00 43 1007.4
20190322191016 83 247 3.0 6.0 0.00 0.00 0.00 44 1007.5
20190322190016 82 270 3.0 7.0 0.00 0.00 0.00 49 1007.6
20190322185017 81 292 3.0 6.0 0.00 0.00 0.00 49 1007.8
20190322184016 81 292 2.0 6.0 0.00 0.00 0.00 52 1008.0
20190322183016 80 292 3.0 8.0 0.00 0.00 0.00 55 1008.2
20190322182016 80 247 3.0 8.0 0.00 0.00 0.00 55 1008.4
20190322181016 79 247 4.0 8.0 0.00 0.00 0.00 55 1008.4
20190322180016 78 292 3.0 7.0 0.00 0.00 0.00 54 1008.6
20190322175017 78 247 5.0 9.0 0.00 0.00 0.00 55 1008.6
20190322174017 78 247 3.0 10.0 0.00 0.00 0.00 55 1008.8
20190322173016 77 270 3.0 7.0 0.00 0.00 0.00 57 1008.7
20190322172016 76 315 3.0 9.0 0.00 0.00 0.00 58 1008.6
20190322171017 76 292 2.0 5.0 0.00 0.00 0.00 57 1008.6
20190322170017 76 270 3.0 7.0 0.00 0.00 0.00 57 1008.6
20190322165016 75 270 2.0 7.0 0.00 0.00 0.00 56 1008.7
20190322164016 75 225 1.0 3.0 0.00 0.00 0.00 57 1008.6
20190322163016 74 202 3.0 5.0 0.00 0.00 0.00 57 1008.6
20190322162016 73 315 1.0 2.0 0.00 0.00 0.00 56 1008.6
20190322131821 52 0.0 1.0 0.00 0.00 0.00 95 1007.0
20190322130821 52 112 1.0 2.0 0.00 0.00 0.00 96 1006.8
20190322125821 52 0.0 2.0 0.00 0.00 0.00 95 1006.7
20190322124821 53 0.0 0.0 0.00 0.00 0.00 96 1006.5
20190322123821 53 0.0 1.0 0.00 0.00 0.00 96 1006.4
20190322122820 53 112 1.0 2.0 0.00 0.00 0.00 96 1006.2
20190322121821 53 0.0 0.0 0.00 0.00 0.00 96 1006.1
20190322120821 53 0.0 0.0 0.00 0.00 0.00 96 1006.0
20190322115821 53 0.0 2.0 0.00 0.00 0.00 96 1005.9
20190322114820 54 0.0 2.0 0.00 0.00 0.00 96 1005.8
20190322113821 54 0.0 0.0 0.00 0.00 0.00 96 1005.8
20190322112821 55 112 1.0 3.0 0.00 0.00 0.00 97 1005.8
20190322111821 55 90 1.0 3.0 0.00 0.00 0.00 96 1005.6
20190322110821 55 90 1.0 2.0 0.00 0.00 0.00 97 1005.7
20190322105820 55 90 2.0 4.0 0.00 0.00 0.00 97 1005.7
20190322104822 55 0.0 0.0 0.00 0.00 0.00 97 1005.8
20190322103820 55 0.0 2.0 0.00 0.00 0.00 97 1005.9
20190322102821 55 0.0 2.0 0.00 0.00 0.00 97 1005.9
20190322101821 54 0.0 1.0 0.00 0.00 0.00 97 1006.1
20190322100820 54 0.0 2.0 0.00 0.00 0.00 97 1006.2
20190322095820 55 0.0 0.0 0.00 0.00 0.00 97 1006.3
20190322094821 55 0.0 0.0 0.00 0.00 0.00 97 1006.5
20190322093820 55 0.0 0.0 0.00 0.00 0.00 96 1006.5
20190322092820 55 0.0 1.0 0.00 0.00 0.00 96 1006.5
20190322091820 56 0.0 0.0 0.00 0.00 0.00 96 1006.5